Home   Weather   New York   Past weeks

Flag for USA Past Weather in New York, New York, USA — Yesterday and Last 2 Weeks

Now
44 °F

Clear.


Feels Like: 44 °F
Forecast: 42 / 64 °F
Wind: No wind

Location: New York City - Central Park

Current Time: Apr 22, 2018 at 6:49:15 am

Latest Report: Apr 22, 2018 at 5:51 am


Visibility: 10 mi

Pressure: 30.38 "Hg

Humidity: 34%

Dew Point: 17 °F

Location of New YorkLocation

Past Weather in New York — Graph

°F

New York Temperature Yesterday

Maximum temperature yesterday: 61 °F (at 3:51 pm)
Minimum temperature yesterday: 39 °F (at 4:51 am)
Average temperature yesterday: 50 °F

High & Low Weather Summary for the Past Weeks

 TemperatureHumidityPressure
High82 °F (Apr 13, 4:51 pm)97% (Apr 16, 8:27 am)30.41 "Hg (Apr 16, 8:27 am)
Low32 °F (Apr 8, 6:51 am)18% (Apr 21, 5:51 pm)29.41 "Hg (Apr 16, 4:51 pm)
Average47 °F54%29.98 "Hg
* Reported Apr 7 4:18 am — Apr 22 4:51 am, New York. Weather by CustomWeather, © 2018

Note: Actual official high and low records may vary slightly from our data, if they occured in-between our weather recording intervals... More about our weather records

Advertising

New York Weather History for the Previous 24 Hours

Scroll right to see more
 ConditionsComfort  
Time TempWeatherWind HumidityBarometerVisibility
4:51 am
Sun, Apr 22
46 °FClear.3 mph33%30.37 "Hg10 mi
3:51 am47 °FClear.5 mph32%30.38 "Hg10 mi
2:51 am48 °FClear.10 mph30%30.37 "Hg10 mi
1:51 am50 °FClear.6 mph29%30.36 "Hg10 mi
12:51 am52 °FClear.3 mph27%30.36 "Hg10 mi
11:51 pm
Sat, Apr 21
53 °FClear.7 mph27%30.35 "Hg10 mi
10:51 pm54 °FClear.3 mph25%30.34 "Hg10 mi
9:51 pm56 °FClear.5 mph23%30.33 "Hg10 mi
8:51 pm57 °FClear.3 mph21%30.31 "Hg10 mi
7:51 pm59 °FClear.7 mph19%30.29 "Hg10 mi
6:51 pm60 °FSunny.7 mph19%30.26 "Hg10 mi
5:51 pm61 °FSunny.6 mph18%30.25 "Hg10 mi
4:51 pm61 °FSunny.7 mph20%30.26 "Hg10 mi
3:51 pm61 °FSunny.8 mph21%30.27 "Hg10 mi
2:51 pm59 °FSunny.9 mph22%30.29 "Hg10 mi
12:51 pm56 °FSunny.7 mph26%30.35 "Hg10 mi
11:51 am54 °FSunny.9 mph27%30.37 "Hg10 mi
10:51 am52 °FSunny.8 mph32%30.40 "Hg10 mi
9:51 am49 °FSunny.7 mph39%30.40 "Hg10 mi
8:51 am44 °FSunny.6 mph47%30.41 "Hg10 mi
7:51 am41 °FSunny.9 mph53%30.41 "Hg10 mi
6:51 am39 °FSunny.5 mph57%30.40 "Hg10 mi
Weather by CustomWeather, © 2018

See weather overview